Voltar ao catálogo

NOAA 12 DEB

AtivoSSO
NORAD 37831·DEBRIS·🇺🇸 United States

Lançado May 14, 1991 de Vandenberg Space Force Base

Loading…

Próximas Passagens (próximas 24 horas)

TLE

AtualizadoSource: Space-Track

Época: Sep 14, 2026, 03:44 UTC

1 37831U 91032D   26257.15581464  .00015505  00000-0  15878-2 0  9990
2 37831  98.1214 321.2169 0001574  82.5848 305.7411 14.90587378788854

Acompanhe NOAA 12 DEB em tempo real com AllMySat

Download on the App Store